1496390401.1,40636,18.88,74156.8,10.91,-28.37,-30.23,0,*4F
1496390402.38,40637,18.81,74162.0,10.91,-30.89,-32.75,0,*43
1496390403.57,40638,18.88,74164.0,10.85,-30.23,-32.13,0,*49
1496390404.82,40639,18.88,74156.5,10.83,-28.31,-30.01,0,*45
1496390406.09,40640,18.81,74152.3,10.83,-28.75,-30.55,0,*4A
1496390407.28,40641,18.88,74158.8,10.81,-30.45,-32.35,0,*47
1496390408.5,40642,18.88,74156.0,10.77,-29.23,-30.95,0,*4D
1496390409.73,40643,18.88,74154.0,10.77,-26.61,-28.05,0,*45
1496390410.98,40644,18.88,74154.3,10.79,-28.05,-29.57,0,*46
1496390412.2,40645,18.88,74156.8,10.79,-25.19,-26.61,0,*4D
1496390413.44,40646,18.88,74154.8,10.81,-24.51,-25.97,0,*4E
1496390414.68,40647,18.81,74156.0,10.83,-23.99,-25.23,0,*41
1496390415.91,40648,18.88,74160.8,10.89,-23.65,-25.09,0,*4F
1496390417.13,40649,18.88,74156.5,10.93,-23.39,-24.71,0,*42
1496390418.36,40650,18.88,74156.8,10.97,-22.97,-24.41,0,*48
1496390419.6,40651,18.88,74158.0,10.99,-25.13,-26.71,0,*4D
1496390420.81,40652,18.88,74164.3,11.01,-24.51,-25.87,0,*43
1496390422.07,40653,18.88,74158.3,11.03,-25.65,-27.45,0,*4A
1496390423.34,40654,18.88,74158.8,11.03,-26.97,-28.53,0,*4B
1496390424.58,40655,18.88,74160.5,11.05,-23.95,-25.35,0,*46
1496390425.82,40656,18.88,74160.0,11.07,-23.43,-25.19,0,*42
1496390427.07,40657,18.81,74160.5,11.07,-24.61,-26.03,0,*4C
1496390428.3,40658,18.88,74162.5,11.13,-23.85,-25.23,0,*4A
1496390429.58,40659,18.81,74162.5,11.15,-24.31,-25.75,0,*46
1496390430.82,40660,18.88,74166.0,11.17,-24.31,-25.81,0,*45
1496390432.02,40661,18.81,74160.0,11.17,-22.41,-23.79,0,*44
1496390433.27,40662,18.88,74170.0,11.21,-21.93,-23.23,0,*41
1496390434.51,40663,18.81,74166.5,11.25,-24.61,-25.97,0,*45
1496390435.74,40664,18.88,74166.5,11.27,-25.09,-26.61,0,*45
1496390436.94,40665,18.88,74166.3,11.25,-25.91,-27.51,0,*45
1496390438.17,40666,18.88,74164.0,11.25,-25.91,-27.45,0,*43
1496390439.46,40667,18.88,74166.5,11.27,-24.11,-25.55,0,*4A
1496390440.67,40668,18.88,74166.5,11.29,-23.79,-25.13,0,*40
1496390441.88,40669,18.88,74160.3,11.35,-22.53,-23.89,0,*40
1496390443.12,40670,18.88,74166.0,11.37,-23.09,-24.51,0,*46
1496390444.34,40671,18.88,74162.8,11.39,-23.13,-24.61,0,*41
1496390445.57,40672,18.81,74166.0,11.41,-23.43,-24.77,0,*4F
1496390446.85,40673,18.88,74164.0,11.41,-22.73,-24.15,0,*48
1496390448.06,40674,18.88,74166.8,11.43,-23.09,-24.51,0,*41
1496390449.29,40675,18.88,74168.3,11.49,-23.13,-24.47,0,*46
1496390450.53,40676,18.88,74170.5,11.49,-22.83,-23.95,0,*45
1496390451.77,40677,18.88,74172.3,11.51,-26.39,-28.09,0,*46
1496390453.0,40678,18.88,74174.5,11.51,-29.79,-31.85,0,*4E
1496390454.26,40679,18.88,74170.5,11.47,-29.01,-30.95,0,*47
1496390455.52,40680,18.81,74166.3,11.41,-28.31,-30.01,0,*48
1496390456.74,40681,18.81,74158.3,11.41,-25.23,-26.87,0,*4E
1496390458.03,40682,18.81,74160.0,11.41,-24.41,-25.81,0,*4D
1496390459.29,40683,18.88,74166.8,11.45,-22.63,-24.21,0,*45
1496390460.58,40684,18.88,74164.3,11.45,-24.83,-26.33,0,*4B
1496390461.84,40685,18.88,74162.3,11.45,-26.45,-28.21,0,*4F
1496390463.09,40686,18.88,74160.0,11.45,-26.13,-27.77,0,*43
1496390464.36,40687,18.81,74154.5,11.47,-24.71,-26.17,0,*41
1496390465.6,40688,18.88,74152.5,11.47,-25.49,-26.97,0,*4C
1496390466.85,40689,18.88,74154.0,11.49,-25.65,-27.23,0,*43
1496390468.08,40690,18.88,74156.0,11.51,-23.29,-24.77,0,*4E
1496390469.32,40691,18.88,74148.3,11.53,-22.27,-23.75,0,*47
1496390470.57,40692,18.88,74152.0,11.57,-22.41,-23.85,0,*4F
1496390471.77,40693,18.88,74158.3,11.59,-21.63,-22.97,0,*41
1496390473.03,40694,18.88,74160.5,11.59,-22.17,-23.49,0,*44
1496390474.26,40695,18.88,74160.5,11.63,-21.97,-23.39,0,*40
1496390475.47,40696,18.88,74170.5,11.69,-22.93,-24.35,0,*45
1496390476.71,40697,18.88,74166.5,11.69,-24.15,-25.65,0,*48
1496390478.0,40698,18.88,74162.8,11.71,-23.99,-25.75,0,*4C
1496390479.23,40699,18.88,74164.5,11.69,-27.99,-29.61,0,*49
1496390480.48,40700,18.88,74160.3,11.67,-27.35,-29.07,0,*40
1496390481.72,40701,18.88,74162.5,11.65,-27.35,-28.79,0,*4B
1496390482.98,40702,18.88,74162.8,11.63,-25.71,-27.39,0,*47
1496390484.21,40703,18.88,74166.5,11.63,-24.93,-26.55,0,*40
1496390485.44,40704,18.81,74160.0,11.63,-26.07,-27.61,0,*4E
1496390486.67,40705,18.88,74160.8,11.65,-28.59,-30.45,0,*4C
1496390487.91,40706,18.81,74162.0,11.61,-27.29,-28.85,0,*46
1496390489.17,40707,18.81,74166.0,11.61,-26.39,-27.83,0,*4E
1496390490.43,40708,18.88,74168.5,11.59,-28.25,-29.89,0,*4D
1496390491.72,40709,18.81,74160.3,11.57,-28.91,-30.61,0,*43
1496390492.96,40710,18.88,74156.3,11.51,-31.23,-33.55,0,*48
1496390494.17,40711,18.88,74156.8,11.47,-29.07,-31.05,0,*46
1496390495.4,40712,18.88,74156.8,11.45,-32.57,-34.89,0,*49
1496390496.63,40713,18.81,74156.3,11.39,-30.39,-32.23,0,*4F
1496390497.87,40714,18.88,74158.5,11.35,-25.97,-27.51,0,*45
1496390499.13,40715,18.88,74156.5,11.37,-25.19,-26.81,0,*4C
1496390500.41,40716,18.88,74158.5,11.37,-25.81,-27.61,0,*41
1496390501.66,40717,18.88,74160.3,11.39,-25.71,-27.29,0,*4D
1496390502.88,40718,18.88,74156.0,11.39,-26.45,-28.15,0,*46
1496390504.14,40719,18.88,74156.5,11.41,-27.77,-29.51,0,*49
1496390505.4,40720,18.88,74154.5,11.39,-28.59,-30.55,0,*43
1496390506.67,40721,18.81,74148.0,11.35,-30.95,-32.85,0,*48
1496390507.91,40722,18.88,74158.5,11.29,-28.91,-30.33,0,*44
1496390509.15,40723,18.88,74154.0,11.29,-26.77,-28.31,0,*48
1496390510.38,40724,18.88,74156.3,11.29,-27.29,-29.13,0,*44
1496390511.65,40725,18.81,74148.8,11.29,-26.55,-28.25,0,*4B
1496390512.88,40726,18.88,74146.0,11.29,-26.77,-28.97,0,*41
1496390514.09,40727,18.88,74148.0,11.29,-25.39,-26.87,0,*46
1496390515.35,40728,18.88,74148.5,11.29,-24.87,-26.29,0,*49
1496390516.64,40729,18.81,74150.5,11.31,-24.67,-26.17,0,*42
1496390517.91,40730,18.88,74152.8,11.31,-26.03,-27.83,0,*46
1496390519.14,40731,18.81,74148.5,11.37,-24.97,-26.49,0,*49
1496390520.38,40732,18.88,74158.5,11.37,-22.93,-24.31,0,*45
1496390521.63,40733,18.88,74160.0,11.41,-22.63,-23.99,0,*4F
1496390522.91,40734,18.88,74160.0,11.45,-23.65,-25.03,0,*4E
1496390524.15,40735,18.88,74160.0,11.45,-25.49,-27.03,0,*45
1496390525.4,40736,18.88,74156.0,11.45,-26.13,-27.77,0,*49
1496390526.64,40737,18.88,74156.5,11.47,-24.15,-25.49,0,*41
1496390527.9,40738,18.88,74156.5,11.47,-23.49,-24.83,0,*47
1496390529.13,40739,18.88,74160.8,11.49,-25.39,-27.07,0,*46
1496390530.41,40740,18.88,74160.3,11.53,-29.29,-31.39,0,*44
1496390531.64,40741,18.88,74160.0,11.47,-28.69,-30.55,0,*4E
1496390532.9,40742,18.88,74162.3,11.45,-27.67,-29.35,0,*40
1496390534.13,40743,18.88,74152.8,11.43,-26.23,-27.83,0,*45
1496390535.37,40744,18.88,74156.5,11.43,-23.95,-25.49,0,*4E
1496390536.58,40745,18.88,74152.3,11.47,-24.35,-25.87,0,*44
1496390537.84,40746,18.88,74152.5,11.49,-23.29,-24.61,0,*4A
1496390539.06,40747,18.88,74156.3,11.51,-22.67,-24.11,0,*4E
1496390540.29,40748,18.81,74154.8,11.57,-22.11,-23.39,0,*4B
1496390541.52,40749,18.88,74158.5,11.61,-22.37,-23.79,0,*4F
1496390542.79,40750,18.88,74158.5,11.63,-24.21,-25.75,0,*4E
1496390544.05,40751,18.81,74152.0,11.63,-23.49,-25.03,0,*47
1496390545.25,40752,18.88,74156.3,11.65,-23.79,-25.23,0,*43
1496390546.54,40753,18.88,74156.3,11.67,-22.47,-23.85,0,*46
1496390547.77,40754,18.88,74156.5,11.69,-21.57,-23.13,0,*42
1496390549.03,40755,18.88,74162.0,11.73,-21.97,-23.23,0,*47
1496390550.3,40756,18.81,74156.0,11.75,-21.77,-23.23,0,*4C
1496390551.53,40757,18.88,74158.0,11.81,-22.67,-24.21,0,*41
1496390552.76,40758,18.88,74162.0,11.85,-24.11,-25.39,0,*45
1496390553.99,40759,18.88,74166.8,11.85,-21.83,-23.13,0,*44
1496390555.24,40760,18.88,74162.0,11.89,-22.17,-23.69,0,*41
1496390556.52,40761,18.88,74158.0,11.91,-23.65,-25.03,0,*47
1496390557.74,40762,18.81,74156.5,11.89,-22.31,-23.59,0,*44
1496390559.0,40763,18.88,74164.0,11.95,-22.03,-23.33,0,*45
1496390560.27,40764,18.88,74164.0,11.97,-21.33,-22.73,0,*45
1496390561.53,40765,18.81,74162.3,12.01,-21.27,-22.37,0,*4D
1496390562.78,40766,18.88,74164.5,12.05,-20.93,-22.21,0,*43
1496390564.01,40767,18.81,74162.5,12.09,-21.73,-22.93,0,*48
1496390565.26,40768,18.81,74160.0,12.13,-23.09,-24.67,0,*4E
1496390566.51,40769,18.88,74164.0,12.13,-22.73,-24.31,0,*40
1496390567.79,40770,18.88,74162.0,12.13,-23.69,-25.29,0,*4A
1496390569.05,40771,18.88,74158.5,12.13,-24.47,-25.97,0,*45
1496390570.29,40772,18.88,74158.0,12.13,-24.05,-25.61,0,*49
1496390571.55,40773,18.88,74162.3,12.13,-23.65,-25.13,0,*4C
1496390572.76,40774,18.88,74158.5,12.15,-22.97,-24.47,0,*41
1496390574.01,40775,18.88,74158.0,12.17,-25.19,-26.77,0,*42
1496390575.24,40776,18.88,74152.0,12.15,-22.67,-23.99,0,*48
1496390576.47,40777,18.88,74158.8,12.19,-21.03,-22.53,0,*43
1496390577.7,40778,18.88,74160.5,12.21,-20.69,-21.93,0,*45
1496390578.93,40779,18.88,74156.0,12.29,-21.17,-22.53,0,*4B
1496390580.19,40780,18.88,74158.5,12.29,-21.83,-23.09,0,*4E
1496390581.42,40781,18.88,74164.5,12.35,-21.77,-23.29,0,*4B
1496390582.64,40782,18.88,74174.0,12.35,-22.03,-23.33,0,*43
1496390583.85,40783,18.88,74172.8,12.35,-21.63,-22.97,0,*48
1496390585.1,40784,18.88,74168.5,12.37,-22.37,-23.95,0,*4C
1496390586.37,40785,18.88,74168.0,12.37,-24.11,-25.61,0,*42
1496390587.62,40786,18.81,74162.5,12.39,-23.23,-24.71,0,*49
1496390588.88,40787,18.88,74170.8,12.37,-22.47,-23.79,0,*4A
1496390590.11,40788,18.81,74168.8,12.43,-22.67,-24.21,0,*4E
1496390591.34,40789,18.88,74172.8,12.43,-21.73,-23.03,0,*4E
1496390592.6,40790,18.88,74178.0,12.43,-21.87,-23.23,0,*4F
1496390593.87,40791,18.88,74172.3,12.45,-24.11,-25.61,0,*42
1496390595.13,40792,18.88,74166.8,12.45,-24.83,-26.61,0,*49
1496390596.39,40793,18.88,74174.8,12.49,-23.65,-25.23,0,*4E
1496390597.63,40794,18.88,74176.3,12.49,-24.31,-25.91,0,*46
1496390598.88,40795,18.88,74170.0,12.45,-22.57,-23.95,0,*4F
1496390600.11,40796,18.81,74168.8,12.49,-22.83,-24.47,0,*41
1496390601.33,40797,18.88,74172.0,12.51,-26.03,-27.67,0,*44
1496390602.54,40798,18.88,74176.5,12.51,-24.51,-26.23,0,*4F
1496390603.81,40799,18.88,74172.3,12.45,-25.97,-27.67,0,*41
1496390605.09,40800,18.88,74174.5,12.45,-28.43,-30.51,0,*49
1496390606.32,40801,18.88,74166.8,12.39,-29.13,-31.01,0,*43
1496390607.54,40802,18.88,74174.8,12.37,-27.71,-29.61,0,*4B
1496390608.84,40803,18.88,74176.3,12.33,-29.39,-31.51,0,*46
1496390610.1,40804,18.88,74174.0,12.29,-29.61,-31.51,0,*47
1496390611.35,40805,18.88,74170.8,12.23,-29.17,-31.23,0,*48
1496390612.61,40806,18.88,74174.5,12.19,-30.05,-31.95,0,*44
1496390613.87,40807,18.88,74172.8,12.17,-27.19,-29.13,0,*47
1496390615.14,40808,18.88,74174.8,12.17,-26.49,-28.05,0,*4A
1496390616.36,40809,18.88,74162.5,12.15,-25.61,-27.23,0,*4B
1496390617.59,40810,18.88,74156.0,12.17,-22.63,-23.79,0,*4F
1496390618.82,40811,18.88,74162.0,12.19,-21.77,-23.19,0,*40
1496390620.03,40812,18.88,74170.3,12.19,-21.13,-22.37,0,*4C
1496390621.26,40813,18.88,74170.5,12.27,-21.57,-23.09,0,*4C
1496390622.49,40814,18.88,74166.8,12.31,-22.83,-24.25,0,*4F
1496390623.72,40815,18.88,74166.3,12.31,-23.59,-25.03,0,*4D
1496390624.96,40816,18.88,74166.3,12.33,-22.41,-23.75,0,*43
1496390626.19,40817,18.88,74164.0,12.35,-22.57,-23.95,0,*4D
1496390627.44,40818,18.88,74168.3,12.37,-22.53,-24.11,0,*4F
1496390628.65,40819,18.81,74170.5,12.39,-23.59,-25.19,0,*42
1496390629.91,40820,18.88,74172.5,12.41,-26.17,-27.67,0,*43
1496390631.2,40821,18.88,74174.3,12.37,-26.33,-28.09,0,*42
1496390632.42,40822,18.81,74168.8,12.35,-27.13,-29.01,0,*49
1496390633.63,40823,18.88,74178.5,12.35,-26.39,-27.93,0,*44
1496390634.91,40824,18.88,74176.0,12.33,-26.55,-28.05,0,*4F
1496390636.15,40825,18.88,74172.8,12.33,-25.87,-27.67,0,*49
1496390637.44,40826,18.88,74168.0,12.29,-25.55,-27.39,0,*45
1496390638.69,40827,18.88,74162.5,12.29,-25.49,-27.23,0,*42
1496390639.94,40828,18.88,74162.5,12.31,-24.87,-26.55,0,*47
1496390641.17,40829,18.88,74162.0,12.31,-26.71,-28.31,0,*41
1496390642.41,40830,18.88,74162.8,12.29,-27.77,-29.57,0,*46
1496390643.67,40831,18.88,74160.3,12.23,-29.35,-31.23,0,*4F
1496390644.9,40832,18.88,74164.8,12.23,-27.29,-28.79,0,*48
1496390646.1,40833,18.88,74164.0,12.23,-25.13,-27.07,0,*44
1496390647.33,40834,18.88,74158.3,12.19,-24.57,-26.17,0,*4B
1496390648.62,40835,18.88,74150.8,12.21,-23.49,-24.71,0,*4B
1496390649.83,40836,18.88,74148.5,12.27,-22.53,-23.75,0,*47
1496390651.07,40837,18.88,74168.3,12.27,-21.83,-23.09,0,*43
1496390652.31,40838,18.88,74156.5,12.31,-24.41,-26.03,0,*4F
1496390653.55,40839,18.88,74152.5,12.33,-23.59,-25.13,0,*40
1496390654.78,40840,18.88,74150.5,12.35,-23.29,-24.77,0,*4C
1496390656.01,40841,18.88,74158.8,12.35,-23.29,-24.61,0,*4A
1496390657.27,40842,18.81,74162.5,12.37,-23.49,-25.09,0,*42
1496390658.49,40843,18.88,74162.3,12.39,-22.67,-24.11,0,*48
1496390659.71,40844,18.81,74164.0,12.43,-22.67,-24.15,0,*46
1496390660.95,40845,18.88,74170.3,12.43,-23.49,-25.09,0,*46
1496390662.19,40846,18.88,74164.5,12.43,-22.73,-23.99,0,*42
1496390663.43,40847,18.88,74164.8,12.45,-24.31,-25.91,0,*4B
1496390664.67,40848,18.88,74166.5,12.49,-22.93,-24.31,0,*4D
1496390665.93,40849,18.88,74172.0,12.49,-24.77,-26.55,0,*40
1496390667.22,40850,18.81,74170.3,12.49,-24.71,-26.17,0,*48
1496390668.48,40851,18.88,74168.3,12.49,-26.07,-27.39,0,*47
1496390669.71,40852,18.88,74170.0,12.49,-29.07,-31.05,0,*43
1496390670.97,40853,18.88,74166.5,12.41,-30.23,-32.07,0,*45
1496390672.22,40854,18.88,74168.3,12.37,-30.45,-32.29,0,*4F
1496390673.47,40855,18.81,74162.8,12.33,-28.47,-30.27,0,*4D
1496390674.73,40856,18.81,74162.8,12.29,-29.39,-31.33,0,*49
1496390676.0,40857,18.88,74162.8,12.23,-27.61,-29.35,0,*4E
1496390677.23,40858,18.88,74156.3,12.23,-26.65,-28.47,0,*40
1496390678.48,40859,18.88,74152.5,12.23,-25.81,-27.23,0,*45
1496390679.71,40860,18.81,74156.8,12.23,-24.31,-25.81,0,*4F
1496390680.95,40861,18.88,74164.5,12.27,-23.29,-24.61,0,*4B
1496390682.21,40862,18.88,74160.0,12.31,-22.77,-24.21,0,*41
1496390683.45,40863,18.88,74162.8,12.31,-24.31,-26.13,0,*47
1496390684.65,40864,18.88,74162.3,12.31,-26.45,-28.15,0,*49
1496390685.91,40865,18.81,74160.5,12.29,-26.77,-28.97,0,*4A
1496390687.19,40866,18.81,74160.8,12.29,-26.77,-28.43,0,*40
1496390688.43,40867,18.88,74162.3,12.27,-26.33,-27.89,0,*46
1496390689.7,40868,18.88,74166.0,12.27,-25.55,-27.19,0,*43
1496390690.92,40869,18.81,74168.0,12.27,-23.39,-24.87,0,*4A
1496390692.16,40870,18.88,74168.0,12.27,-23.49,-25.09,0,*42
1496390693.42,40871,18.81,74160.5,12.29,-27.03,-28.59,0,*4F
1496390694.7,40872,18.81,74166.3,12.29,-26.71,-28.43,0,*43
1496390695.93,40873,18.88,74170.8,12.27,-27.07,-28.75,0,*49
1496390697.16,40874,18.88,74164.5,12.27,-29.29,-31.33,0,*46
1496390698.37,40875,18.81,74164.5,12.19,-31.29,-33.37,0,*45
1496390699.63,40876,18.81,74160.8,12.15,-31.73,-33.77,0,*41
1496390700.86,40877,18.81,74158.3,12.11,-33.61,-35.77,0,*43
1496390702.09,40878,18.81,74160.3,12.01,-32.13,-34.13,0,*4A
1496390703.34,40879,18.88,74162.3,11.97,-27.07,-28.75,0,*4B
1496390704.55,40880,18.88,74164.0,11.99,-25.49,-27.13,0,*44
1496390705.78,40881,18.88,74164.3,11.99,-24.87,-26.45,0,*44
1496390707.02,40882,18.88,74168.8,11.99,-24.51,-26.13,0,*4F
1496390708.27,40883,18.88,74172.8,12.05,-25.29,-26.87,0,*4B
1496390709.55,40884,18.88,74166.3,12.05,-25.75,-27.39,0,*41
1496390710.81,40885,18.81,74156.8,12.07,-26.81,-28.59,0,*43
1496390712.08,40886,18.88,74152.0,12.05,-26.93,-28.75,0,*4F
1496390713.35,40887,18.88,74156.3,12.01,-27.19,-28.79,0,*45
1496390714.62,40888,18.81,74158.3,12.01,-26.81,-28.53,0,*42
1496390715.9,40889,18.88,74166.8,12.01,-25.81,-27.35,0,*4F
1496390717.18,40890,18.88,74160.3,12.01,-27.99,-30.05,0,*49
1496390718.44,40891,18.88,74162.8,11.97,-30.83,-32.79,0,*40
1496390719.68,40892,18.88,74160.8,11.97,-28.69,-30.33,0,*42
1496390720.9,40893,18.88,74162.0,11.93,-29.67,-31.73,0,*4D
1496390722.18,40894,18.88,74162.3,11.91,-29.29,-31.11,0,*46
1496390723.42,40895,18.88,74166.3,11.89,-27.83,-29.39,0,*43
1496390724.69,40896,18.88,74166.3,11.89,-24.21,-25.71,0,*4B
1496390725.91,40897,18.88,74164.0,11.91,-23.79,-25.35,0,*49
1496390727.17,40898,18.88,74158.3,11.95,-23.33,-24.77,0,*4B
1496390728.46,40899,18.81,74156.0,11.97,-24.71,-26.33,0,*4B
1496390729.69,40900,18.88,74160.8,11.97,-26.23,-27.89,0,*4F
1496390730.97,40901,18.88,74144.5,11.97,-25.55,-26.97,0,*42
1496390732.23,40902,18.81,74140.8,11.99,-22.21,-23.49,0,*4D
1496390733.49,40903,18.88,74158.0,12.05,-21.13,-22.47,0,*47
1496390734.77,40904,18.88,74166.5,12.09,-22.77,-24.41,0,*4D
1496390736.04,40905,18.81,74158.0,12.11,-24.71,-26.33,0,*42
1496390737.24,40906,18.88,74148.0,12.11,-24.97,-26.65,0,*4A
1496390738.48,40907,18.88,74150.3,12.13,-24.31,-25.87,0,*4A
1496390739.72,40908,18.88,74162.5,12.13,-23.69,-25.19,0,*48
1496390740.98,40909,18.88,74158.0,12.17,-24.41,-26.23,0,*4A
1496390742.21,40910,18.88,74160.3,12.17,-25.35,-26.87,0,*4E
1496390743.43,40911,18.88,74162.5,12.15,-24.51,-26.03,0,*42
1496390744.69,40912,18.88,74166.5,12.17,-24.05,-25.55,0,*42
1496390745.92,40913,18.81,74164.3,12.21,-22.93,-24.35,0,*48
1496390747.18,40914,18.81,74160.5,12.21,-24.71,-26.45,0,*40
1496390748.44,40915,18.88,74160.5,12.21,-25.71,-27.29,0,*4B
1496390749.68,40916,18.88,74162.3,12.19,-29.07,-31.11,0,*42
1496390750.94,40917,18.88,74160.8,12.17,-30.83,-32.75,0,*48
1496390752.17,40918,18.88,74158.5,12.13,-30.45,-32.69,0,*44
1496390753.42,40919,18.88,74160.3,12.07,-31.85,-33.89,0,*42
1496390754.68,40920,18.88,74164.5,12.01,-29.23,-31.11,0,*48
1496390755.94,40921,18.88,74164.0,11.95,-28.21,-29.79,0,*43
1496390757.19,40922,18.88,74162.8,11.97,-27.19,-28.85,0,*44
1496390758.44,40923,18.81,74166.8,11.97,-28.05,-29.79,0,*45
1496390759.67,40924,18.81,74158.5,11.95,-29.23,-31.01,0,*43
1496390760.96,40925,18.88,74156.3,11.91,-31.11,-32.85,0,*41
1496390762.21,40926,18.88,74158.5,11.87,-31.45,-33.61,0,*4F
1496390763.45,40927,18.88,74156.8,11.81,-32.79,-35.01,0,*44
1496390764.68,40928,18.88,74160.3,11.73,-33.21,-35.53,0,*4D
1496390765.88,40929,18.88,74162.3,11.69,-32.35,-34.89,0,*45
1496390767.09,40930,18.88,74164.3,11.65,-32.01,-34.07,0,*40
1496390768.35,40931,18.88,74166.5,11.63,-28.09,-30.01,0,*46
1496390769.63,40932,18.81,74162.8,11.61,-30.01,-31.95,0,*4A
1496390770.85,40933,18.81,74140.8,11.63,-27.29,-28.85,0,*4C
1496390772.09,40934,18.88,74140.8,11.63,-24.71,-26.39,0,*4C
1496390773.3,40935,18.88,74144.5,11.63,-23.39,-24.77,0,*4E
1496390774.58,40936,18.88,74152.3,11.67,-23.03,-24.41,0,*45
1496390775.81,40937,18.88,74154.0,11.71,-22.87,-24.31,0,*49
1496390777.04,40938,18.88,74156.3,11.73,-25.03,-26.45,0,*4E
1496390778.33,40939,18.88,74162.3,11.75,-24.21,-25.81,0,*43
1496390779.55,40940,18.88,74166.8,11.81,-23.69,-25.19,0,*4C
1496390780.78,40941,18.88,74170.3,11.85,-22.97,-24.41,0,*45
1496390782.04,40942,18.88,74170.0,11.87,-25.23,-26.97,0,*45
1496390783.25,40943,18.88,74170.5,11.89,-26.65,-28.31,0,*49
1496390784.45,40944,18.88,74170.5,11.89,-27.13,-28.69,0,*43
1496390785.69,40945,18.88,74164.0,11.89,-27.19,-29.01,0,*47
1496390786.95,40946,18.88,74168.5,11.87,-27.67,-29.35,0,*44
1496390788.21,40947,18.88,74170.8,11.85,-28.21,-30.01,0,*45
1496390789.44,40948,18.81,74164.3,11.85,-29.79,-31.73,0,*42
1496390790.7,40949,18.88,74168.0,11.79,-30.55,-32.51,0,*45
1496390791.91,40950,18.88,74166.8,11.73,-29.23,-31.01,0,*48
1496390793.12,40951,18.88,74156.8,11.69,-31.45,-33.37,0,*4C
1496390794.39,40952,18.88,74156.3,11.67,-28.85,-30.61,0,*45
1496390795.61,40953,18.81,74158.0,11.65,-27.55,-29.39,0,*41
1496390796.85,40954,18.81,74158.3,11.65,-26.77,-28.37,0,*48
1496390798.09,40955,18.88,74156.8,11.65,-27.19,-28.79,0,*4A
1496390799.31,40956,18.81,74150.5,11.65,-25.19,-26.71,0,*4D
1496390800.57,40957,18.81,74164.3,11.67,-23.99,-25.19,0,*4D
1496390801.77,40958,18.88,74168.0,11.69,-23.39,-24.93,0,*45
1496390803.0,40959,18.88,74168.0,11.73,-25.75,-27.55,0,*48
1496390804.23,40960,18.88,74166.5,11.73,-25.23,-27.23,0,*40
1496390805.49,40961,18.81,74166.3,11.79,-23.33,-24.61,0,*49
1496390806.69,40962,18.81,74168.0,11.81,-24.93,-26.23,0,*44
1496390807.92,40963,18.88,74170.5,11.79,-24.77,-26.23,0,*48
1496390809.2,40964,18.88,74168.3,11.79,-25.75,-27.45,0,*4D
1496390810.43,40965,18.88,74166.0,11.81,-24.83,-26.49,0,*4E
1496390811.69,40966,18.88,74160.0,11.85,-23.65,-25.29,0,*43
1496390812.97,40967,18.88,74160.3,11.87,-22.73,-24.21,0,*4F
1496390814.19,40968,18.88,74164.8,11.91,-22.41,-24.05,0,*40
1496390815.41,40969,18.88,74162.3,11.91,-22.37,-23.79,0,*4C
1496390816.65,40970,18.81,74162.5,11.95,-22.37,-23.75,0,*4C
1496390817.88,40971,18.88,74166.5,11.99,-22.11,-23.49,0,*4A
1496390819.13,40972,18.88,74172.5,12.05,-22.77,-24.57,0,*47
1496390820.39,40973,18.88,74176.3,12.05,-25.13,-26.71,0,*45
1496390821.65,40974,18.81,74174.3,12.05,-27.29,-29.35,0,*46
1496390822.91,40975,18.88,74174.5,12.01,-30.73,-32.69,0,*49
1496390824.17,40976,18.88,74174.5,11.97,-29.39,-31.29,0,*47
1496390825.43,40977,18.88,74178.5,11.93,-28.91,-30.55,0,*4B
1496390826.66,40978,18.81,74172.0,11.93,-29.61,-31.61,0,*4C
1496390827.92,40979,18.88,74176.8,11.87,-28.05,-29.45,0,*44
1496390829.16,40980,18.88,74178.3,11.85,-28.21,-30.83,0,*44
1496390830.37,40981,18.81,74180.0,11.85,-30.27,-32.13,0,*41
1496390831.62,40982,18.88,74176.3,11.81,-29.89,-31.73,0,*4F
1496390832.86,40983,18.88,74172.8,11.79,-27.13,-28.69,0,*47
1496390834.14,40984,18.81,74168.8,11.79,-25.29,-26.93,0,*40
1496390835.33,40985,18.88,74166.0,11.81,-24.93,-26.45,0,*4D
1496390836.54,40986,18.88,74164.0,11.81,-24.51,-26.23,0,*40
1496390837.77,40987,18.88,74162.3,11.81,-24.15,-25.65,0,*40
1496390839.02,40988,18.88,74160.5,11.87,-25.09,-26.71,0,*43
1496390840.28,40989,18.88,74154.3,11.87,-23.85,-25.35,0,*43
1496390841.56,40990,18.81,74158.8,11.91,-21.97,-23.23,0,*4C
1496390842.8,40991,18.88,74166.5,11.95,-22.63,-24.11,0,*47
1496390844.06,40992,18.88,74174.3,11.97,-25.19,-26.81,0,*47
1496390845.3,40993,18.88,74168.5,11.99,-24.21,-25.65,0,*4B
1496390846.51,40994,18.81,74162.5,11.99,-21.63,-23.09,0,*43
1496390847.77,40995,18.81,74170.3,12.05,-22.17,-23.75,0,*4F
1496390849.01,40996,18.88,74178.8,12.09,-22.63,-24.11,0,*46
1496390850.24,40997,18.81,74172.0,12.11,-21.93,-23.33,0,*45
1496390851.44,40998,18.88,74176.3,12.15,-22.87,-24.31,0,*4D
1496390852.7,40999,18.88,74174.0,12.15,-24.15,-25.71,0,*44
1496390853.96,41000,18.88,74174.5,12.17,-25.65,-27.35,0,*4A
1496390855.18,41001,18.88,74174.5,12.13,-30.23,-32.35,0,*4D
1496390856.43,41002,18.88,74168.0,12.09,-30.95,-32.57,0,*4C
1496390857.71,41003,18.88,74168.3,12.05,-28.05,-30.01,0,*40
1496390858.97,41004,18.88,74164.5,12.01,-28.53,-30.55,0,*41
1496390860.23,41005,18.88,74164.0,11.99,-27.45,-29.01,0,*43
1496390861.5,41006,18.88,74168.3,11.97,-24.21,-25.65,0,*41
1496390862.74,41007,18.88,74174.3,11.99,-24.51,-25.97,0,*44
1496390863.97,41008,18.88,74164.8,12.01,-22.41,-23.79,0,*48
1496390865.2,41009,18.88,74162.0,12.07,-23.95,-25.35,0,*49
1496390866.43,41010,18.88,74158.3,12.07,-23.43,-25.03,0,*4F
1496390867.66,41011,18.88,74156.8,12.09,-22.97,-24.51,0,*4E
1496390868.88,41012,18.88,74162.0,12.13,-22.87,-24.35,0,*45
1496390870.14,41013,18.88,74168.3,12.15,-22.17,-23.65,0,*49
1496390871.36,41014,18.88,74164.3,12.19,-21.97,-23.39,0,*40
1496390872.6,41015,18.81,74160.3,12.21,-24.31,-25.65,0,*4C
1496390873.88,41016,18.88,74168.3,12.21,-23.85,-25.45,0,*45
1496390875.15,41017,18.88,74174.3,12.27,-24.21,-25.75,0,*48
1496390876.39,41018,18.88,74168.8,12.23,-23.53,-25.09,0,*4A
1496390877.62,41019,18.81,74170.5,12.29,-23.09,-24.77,0,*46
1496390878.88,41020,18.81,74170.5,12.31,-23.53,-25.03,0,*48
1496390880.1,41021,18.88,74170.0,12.31,-23.69,-25.35,0,*45
1496390881.36,41022,18.88,74174.0,12.33,-23.75,-25.45,0,*4E
1496390882.64,41023,18.88,74172.8,12.33,-22.73,-24.15,0,*4C
1496390883.86,41024,18.88,74178.5,12.35,-22.67,-23.99,0,*4B
1496390885.12,41025,18.88,74174.0,12.35,-24.15,-25.75,0,*4D
1496390886.32,41026,18.88,74170.8,12.39,-24.93,-26.39,0,*47
1496390887.6,41027,18.81,74174.0,12.37,-24.87,-26.55,0,*47
1496390888.85,41028,18.88,74176.8,12.37,-25.23,-27.23,0,*47
1496390890.08,41029,18.88,74178.3,12.37,-25.39,-27.07,0,*4B
1496390891.29,41030,18.88,74176.5,12.39,-27.71,-29.45,0,*4B
1496390892.52,41031,18.88,74174.8,12.33,-28.31,-30.11,0,*42
1496390893.78,41032,18.88,74170.3,12.35,-26.97,-28.59,0,*40
1496390895.01,41033,18.88,74170.0,12.31,-28.69,-30.55,0,*4F
1496390896.24,41034,18.81,74168.0,12.23,-25.39,-26.77,0,*44
1496390897.45,41035,18.88,74170.0,12.27,-24.47,-26.23,0,*48